Location: Baia Mare
(47.6567°N, 23.5850°E)
Time: 20:08:21
(UTC+03:00)

ISS - Pass Details

Date: 05 August 2018
Orbit: 402 x 408 km, 51.6° (Epoch: 20 September)

Event Time Altitude Azimuth Distance (km) Brightness Sun altitude
Rises 21:57:15 0° 292° (WNW) 2,334 1.7 -9.7°
Reaches altitude 10° 21:59:23 10° 285° (WNW) 1,472 0.2 -10.0°
Maximum altitude 22:02:32 43° 213° (SSW) 590 -3.1 -10.4°
Enters shadow 22:04:52 16° 146° (SE) 1,159 -2.1 -10.7°
